Location: Arboyeti
(42.1122°N, 44.6017°E)
Time: 09:55:56
(UTC+00:00)

N. Korean satellite - Pass Details

Date: 05 October 2021
Orbit: 450 x 495 km, 97.3° (Epoch: 15 October)

Event Time Altitude Azimuth Distance (km) Brightness Sun altitude
Rises 01:58:07 0° 18° (NNE) 2,562 10.6 -12.8°
Reaches altitude 10° 02:00:15 10° 25° (NNE) 1,683 9.7 -12.4°
Maximum altitude 02:03:45 45° 99° (E) 679 7.8 -11.8°
Drops below altitude 10° 02:07:14 10° 173° (S) 1,685 9.3 -11.1°
Sets 02:09:22 0° 180° (S) 2,565 10.2 -10.7°
